TimeMDT,TemperatureF,Dew PointF,Humidity,Sea Level PressureIn,VisibilityMPH,Wind Direction,Wind SpeedMPH,Gust SpeedMPH,PrecipitationIn,Events,Conditions,WindDirDegrees,DateUTC
12:15 AM,42.8,21.2,42,30.12,10.0,NW,9.2,-,N/A,,Clear,310,2012-10-10 06:15:00
12:35 AM,42.8,21.2,42,30.12,10.0,NW,9.2,-,N/A,,Clear,310,2012-10-10 06:35:00
12:55 AM,41.0,21.2,45,30.12,10.0,NW,9.2,-,N/A,,Clear,310,2012-10-10 06:55:00
1:15 AM,41.0,21.2,45,30.11,10.0,NW,9.2,-,N/A,,Clear,310,2012-10-10 07:15:00
1:35 AM,41.0,21.2,45,30.12,10.0,NW,10.4,-,N/A,,Clear,320,2012-10-10 07:35:00
1:55 AM,41.0,19.4,42,30.12,10.0,NW,8.1,-,N/A,,Clear,320,2012-10-10 07:55:00
2:15 AM,41.0,19.4,42,30.12,10.0,NW,10.4,-,N/A,,Clear,320,2012-10-10 08:15:00
2:35 AM,41.0,19.4,42,30.12,10.0,NW,10.4,-,N/A,,Clear,310,2012-10-10 08:35:00
2:55 AM,39.2,19.4,45,30.12,10.0,NW,9.2,-,N/A,,Clear,310,2012-10-10 08:55:00
3:15 AM,39.2,19.4,45,30.12,10.0,NW,10.4,-,N/A,,Clear,310,2012-10-10 09:15:00
3:35 AM,39.2,19.4,45,30.12,10.0,NW,10.4,-,N/A,,Clear,310,2012-10-10 09:35:00
3:55 AM,37.4,19.4,48,30.11,10.0,NW,12.7,-,N/A,,Clear,310,2012-10-10 09:55:00
4:15 AM,37.4,19.4,48,30.11,10.0,NW,11.5,-,N/A,,Clear,310,2012-10-10 10:15:00
4:35 AM,37.4,19.4,48,30.11,10.0,NW,12.7,-,N/A,,Clear,320,2012-10-10 10:35:00
4:55 AM,37.4,19.4,48,30.10,10.0,NW,10.4,-,N/A,,Clear,320,2012-10-10 10:55:00
5:15 AM,37.4,19.4,48,30.10,10.0,NW,11.5,-,N/A,,Clear,310,2012-10-10 11:15:00
5:35 AM,37.4,19.4,48,30.11,10.0,NW,11.5,-,N/A,,Clear,320,2012-10-10 11:35:00
5:55 AM,37.4,19.4,48,30.11,10.0,NW,11.5,-,N/A,,Clear,310,2012-10-10 11:55:00
6:15 AM,37.4,19.4,48,30.11,10.0,NNW,12.7,-,N/A,,Clear,330,2012-10-10 12:15:00
6:35 AM,37.4,19.4,48,30.11,10.0,NW,10.4,-,N/A,,Clear,320,2012-10-10 12:35:00
6:49 AM,37.4,19.4,48,30.11,10.0,WNW,11.5,-,N/A,,Clear,290,2012-10-10 12:49:00
6:55 AM,35.6,19.4,52,30.10,10.0,NW,11.5,-,N/A,,Clear,310,2012-10-10 12:55:00
7:47 AM,37.4,19.4,48,30.11,10.0,WNW,11.5,-,N/A,,Partly Cloudy,290,2012-10-10 13:47:00
8:47 AM,37.4,19.4,48,30.11,10.0,WNW,9.2,-,N/A,,Partly Cloudy,290,2012-10-10 14:47:00
9:47 AM,44.6,19.4,37,30.11,10.0,NW,11.5,-,N/A,,Clear,320,2012-10-10 15:47:00
10:47 AM,50.0,21.2,32,30.10,10.0,WNW,9.2,-,N/A,,Clear,300,2012-10-10 16:47:00
11:47 AM,57.2,24.8,29,30.08,10.0,SE,3.5,-,N/A,,Clear,130,2012-10-10 17:47:00
12:53 PM,62.6,23.0,22,30.06,10.0,ESE,11.5,-,N/A,,Partly Cloudy,110,2012-10-10 18:53:00
1:47 PM,64.4,21.2,19,30.04,10.0,ESE,10.4,-,N/A,,Partly Cloudy,110,2012-10-10 19:47:00
2:47 PM,66.2,23.0,19,30.00,10.0,ESE,11.5,-,N/A,,Partly Cloudy,110,2012-10-10 20:47:00
3:50 PM,69.8,24.8,18,29.97,10.0,SE,10.4,-,N/A,,Partly Cloudy,130,2012-10-10 21:50:00
4:47 PM,66.2,24.8,21,29.97,10.0,SE,16.1,-,N/A,,Partly Cloudy,130,2012-10-10 22:47:00
5:47 PM,62.6,24.8,24,29.97,10.0,ESE,16.1,-,N/A,,Partly Cloudy,120,2012-10-10 23:47:00
6:47 PM,51.8,32.0,47,29.96,10.0,SE,6.9,-,N/A,,Partly Cloudy,130,2012-10-11 00:47:00
7:47 PM,53.6,26.6,35,29.97,10.0,Calm,Calm,-,N/A,,Partly Cloudy,0,2012-10-11 01:47:00
8:47 PM,53.6,24.8,33,29.98,10.0,West,8.1,-,N/A,,Clear,280,2012-10-11 02:47:00
9:50 PM,53.6,23.0,30,29.97,10.0,NNW,6.9,-,N/A,,Clear,330,2012-10-11 03:50:00
10:47 PM,51.8,21.2,30,29.98,10.0,NW,5.8,-,N/A,,Clear,310,2012-10-11 04:47:00
11:15 PM,51.8,23.0,33,29.99,10.0,WNW,8.1,-,N/A,,Clear,300,2012-10-11 05:15:00
11:35 PM,50.0,23.0,35,29.99,10.0,WNW,6.9,-,N/A,,Clear,300,2012-10-11 05:35:00
11:55 PM,50.0,23.0,35,29.99,10.0,NW,6.9,-,N/A,,Scattered Clouds,310,2012-10-11 05:55:00